FENGYUN 1C DEB, 40691

Orbit data source: Space-Track

FENGYUN 1C DEB, 40691 is space debris in SSO originally from a launch on Mon, 10 May 1999 UTC launched from the Taiyaun Space Center, China (TSC). Fengyun 1C debris stems from the Chinese weather satellite Fengyun-1C, which was intentionally destroyed by a Chinese anti-satellite missile in 2007. This event dramatically increased the amount of space debris, with thousands of trackable fragments posing hazards to satellites and human spaceflight. The Fengyun 1C debris cloud has become a focal point in discussions about space sustainability and the need for international regulations to prevent the creation of new debris.

Loading next visibility...
Identifier
40691, 1999-025EWX
Orbit
SSO
Country
Flag of CNCN / PRC
Related business
Manufacturer
Unknown
Mission
Spacecraft
Bus & Motor
Unknown
Mass
Unknown
Launch date (UTC)
1999-05-10 (27 years ago)
Launch vehicle
Unknown
Launch site
Taiyaun Space Center, China (TSC)
Object type
Payload
Rocket body
Debris
Shape & HBR
Unknown shape, 0.1 m
Radar Cross Section
Small (<0.1 m²)

Expand to show TLE details & history
Last TLE update: 2 weeks ago

TLE from 2 weeks ago
0 FENGYUN 1C DEB
1 40691U 99025EWX 26157.33703788  .00000128  00000-0  12991-3 0  9991
2 40691  99.0327 189.7944 0128634 193.6545 166.1122 13.90034295578758
Epoch: 2026-06-06T08:05Z
TLE epoch observation values (Epoch: 2026-06-06T08:05:20.072Z)
Latitude
-0.00003°
Longitude
173.70672°
Altitude
1,022.701 km
Speed
7.294 km/s
True Right ascension
12h 39m 10s
True Declination
0° 00' 00"
Sunlit
Object was in daylight at epoch
Visualization orbit readout
Latitude
Unknown
Longitude
Unknown
Altitude
Unknown
Speed
Unknown
Apparent Right ascension
Unknown
Apparent Declination
Unknown
Sunlit
N/A
Visualization observer readout
Local Sidereal Time
21:40:34
Azimuth
Unknown
Elevation
Unknown
Doppler factor
Unknown
Orbital elements
Apogee altitude
1,019.677 km
Perigee altitude
831.772 km
Semi-major axis
7,303.861 km
Eccentricity
0.01286
Inclination
99.0327°
RAAN
189.7944°
Arg. of periapsis
193.6545°
True anomaly
166.46056°
Mean anomaly
166.1122°
Eccentric anomaly
166.28692°
Mean motion
3.47708 °/min
Orbital period
103.54 mins
BSTAR
0.00012991
Loading maneuver chart data...
Computing Atmospheric mass density...
Loading historical data...
Loading historical data...
Loading historical data...
Loading historical data...
Loading historical data...
Loading historical data...
Loading historical data...

Documentation

Showing up to 5 results
|